| time (UTC) | temp C | wind direction | speed KPH | gust KPH | rain 1hr cm | rain 24hr cm | rain mn cm | humidity % | barometer mb |
| 20260906150140 | 31 | 80 | 3.2 | 11.3 | 0.00 | 0.00 | 0.00 | 75 | 998.3 |
| 20260906145640 | 30 | 159 | 3.2 | 9.7 | 0.00 | 0.00 | 0.00 | 75 | 998.4 |
| 20260906145410 | 30 | 65 | 6.4 | 9.7 | 0.00 | 0.00 | 0.00 | 76 | 998.4 |
| 20260906144639 | 30 | 55 | 3.2 | 4.8 | 0.00 | 0.00 | 0.00 | 77 | 998.4 |
| 20260906144138 | 30 | 55 | 3.2 | 4.8 | 0.00 | 0.00 | 0.00 | 77 | 998.3 |
| 20260906143907 | 30 | 59 | 1.6 | 16.1 | 0.00 | 0.00 | 0.00 | 77 | 998.3 |
| 20260906143408 | 30 | 62 | 6.4 | 16.1 | 0.00 | 0.00 | 0.00 | 77 | 998.3 |
| 20260906142637 | 30 | 82 | 8.0 | 11.3 | 0.00 | 0.00 | 0.00 | 77 | 998.2 |
| 20260906142135 | 30 | 47 | 6.4 | 11.3 | 0.00 | 0.00 | 0.00 | 78 | 998.3 |
| 20260906141635 | 29 | 69 | 0.0 | 0.0 | 0.00 | 0.00 | 0.00 | 79 | 998.2 |
| 20260906141136 | -17 | 0.0 | 0.0 | 0.00 | 0.00 | 0.00 | 998.2 | ||
| 20260906140635 | -17 | 0.0 | 0.0 | 0.00 | 0.00 | 0.00 | 998.3 | ||
| 20260906140135 | -17 | 0.0 | 0.0 | 0.00 | 0.00 | 0.00 | 998.3 | ||
| 20260906135633 | -17 | 0.0 | 0.0 | 0.00 | 0.00 | 0.00 | 998.3 | ||
| 20260906135132 | -17 | 0.0 | 0.0 | 0.00 | 0.00 | 0.00 | 998.4 | ||
| 20260906134630 | 26 | 276 | 0.0 | 0.0 | 0.00 | 0.00 | 0.00 | 86 | 998.4 |
| 20260906134130 | 26 | 276 | 0.0 | 0.0 | 0.00 | 0.00 | 0.00 | 86 | 998.4 |
| 20260906133629 | -17 | 0.0 | 0.0 | 0.00 | 0.00 | 0.00 | 998.4 | ||
| 20260906133128 | -17 | 0.0 | 0.0 | 0.00 | 0.00 | 0.00 | 998.5 | ||
| 20260906132627 | -17 | 0.0 | 0.0 | 0.00 | 0.00 | 0.00 | 998.5 | ||
| 20260906131625 | 24 | 227 | 0.0 | 0.0 | 0.00 | 0.00 | 0.00 | 89 | 998.5 |
| 20260906131124 | 24 | 227 | 0.0 | 0.0 | 0.00 | 0.00 | 0.00 | 90 | 998.5 |
| 20260906130624 | 23 | 227 | 0.0 | 0.0 | 0.00 | 0.00 | 0.00 | 92 | 998.3 |
| 20260906130125 | 23 | 227 | 0.0 | 0.0 | 0.00 | 0.00 | 0.00 | 91 | 998.3 |
| 20260906125623 | 23 | 87 | 0.0 | 0.0 | 0.00 | 0.00 | 0.00 | 93 | 998.2 |
| 20260906124624 | 23 | 87 | 0.0 | 0.0 | 0.00 | 0.00 | 0.00 | 93 | 998.1 |
| 20260906124353 | 23 | 87 | 0.0 | 0.0 | 0.00 | 0.00 | 0.00 | 94 | 998.1 |
| 20260906123622 | 23 | 87 | 0.0 | 0.0 | 0.00 | 0.00 | 0.00 | 94 | 998.0 |
| 20260906123124 | 22 | 87 | 0.0 | 0.0 | 0.00 | 0.00 | 0.00 | 93 | 998.0 |
| 20260906122622 | 22 | 87 | 0.0 | 0.0 | 0.00 | 0.00 | 0.00 | 93 | 997.9 |
| 20260906122123 | 22 | 87 | 0.0 | 0.0 | 0.00 | 0.00 | 0.00 | 93 | 997.7 |
| 20260906121622 | 22 | 87 | 0.0 | 0.0 | 0.00 | 0.00 | 0.00 | 93 | 997.7 |
| 20260906121123 | 22 | 86 | 0.0 | 0.0 | 0.00 | 0.00 | 0.00 | 93 | 997.6 |
| 20260906120621 | 22 | 86 | 0.0 | 0.0 | 0.00 | 0.00 | 0.00 | 93 | 997.6 |
| 20260906120122 | 22 | 86 | 0.0 | 0.0 | 0.00 | 0.00 | 0.00 | 93 | 997.6 |
| 20260906115621 | 22 | 89 | 0.0 | 0.0 | 0.00 | 0.00 | 0.00 | 93 | 997.5 |
| 20260906115121 | 22 | 235 | 0.0 | 0.0 | 0.00 | 0.00 | 0.00 | 93 | 997.5 |
| 20260906114620 | 23 | 235 | 0.0 | 0.0 | 0.00 | 0.00 | 0.00 | 93 | 997.5 |
| 20260906114120 | 23 | 235 | 0.0 | 0.0 | 0.00 | 0.00 | 0.00 | 93 | 997.3 |
| 20260906113854 | 23 | 235 | 0.0 | 0.0 | 0.00 | 0.00 | 0.00 | 93 | 997.4 |
| 20260906113120 | 23 | 235 | 0.0 | 0.0 | 0.00 | 0.00 | 0.00 | 92 | 997.3 |
| 20260906112621 | 23 | 235 | 0.0 | 0.0 | 0.00 | 0.00 | 0.00 | 92 | 997.4 |
| 20260906112122 | 23 | 235 | 0.0 | 0.0 | 0.00 | 0.00 | 0.00 | 92 | 997.3 |
| 20260906111621 | 23 | 235 | 0.0 | 0.0 | 0.00 | 0.00 | 0.00 | 92 | 997.3 |
| 20260906111353 | 23 | 235 | 0.0 | 0.0 | 0.00 | 0.00 | 0.00 | 92 | 997.2 |
| 20260906110621 | 23 | 235 | 0.0 | 0.0 | 0.00 | 0.00 | 0.00 | 92 | 997.1 |
| 20260906110119 | 23 | 235 | 0.0 | 0.0 | 0.00 | 0.00 | 0.00 | 92 | 997.1 |
| 20260906105620 | 23 | 235 | 0.0 | 0.0 | 0.00 | 0.00 | 0.00 | 92 | 997.1 |
| 20260906105120 | 23 | 235 | 0.0 | 0.0 | 0.00 | 0.00 | 0.00 | 92 | 997.0 |
| 20260906104619 | 23 | 235 | 0.0 | 0.0 | 0.00 | 0.00 | 0.00 | 92 | 997.0 |
| 20260906104120 | 23 | 235 | 0.0 | 0.0 | 0.00 | 0.00 | 0.00 | 92 | 996.9 |
| 20260906103620 | 23 | 235 | 0.0 | 0.0 | 0.00 | 0.00 | 0.00 | 92 | 996.9 |
| 20260906103120 | 23 | 235 | 0.0 | 0.0 | 0.00 | 0.00 | 0.00 | 92 | 996.9 |
| 20260906102619 | 23 | 235 | 0.0 | 0.0 | 0.00 | 0.00 | 0.00 | 92 | 996.9 |
| 20260906102118 | 23 | 235 | 0.0 | 0.0 | 0.00 | 0.00 | 0.00 | 91 | 996.8 |
| 20260906101619 | 23 | 235 | 0.0 | 0.0 | 0.00 | 0.00 | 0.00 | 91 | 996.8 |
| 20260906101120 | 23 | 235 | 0.0 | 0.0 | 0.00 | 0.00 | 0.00 | 91 | 996.8 |
| 20260906100619 | 23 | 235 | 0.0 | 0.0 | 0.00 | 0.00 | 0.00 | 91 | 996.7 |
| 20260906100119 | 23 | 235 | 0.0 | 0.0 | 0.00 | 0.00 | 0.00 | 91 | 996.7 |
| 20260906095620 | 23 | 235 | 0.0 | 0.0 | 0.00 | 0.00 | 0.00 | 91 | 996.8 |
| 20260906095118 | 23 | 235 | 0.0 | 0.0 | 0.00 | 0.00 | 0.00 | 91 | 996.8 |
| 20260906094619 | 24 | 235 | 0.0 | 0.0 | 0.00 | 0.00 | 0.00 | 91 | 996.7 |
| 20260906094118 | 24 | 235 | 0.0 | 0.0 | 0.00 | 0.00 | 0.00 | 91 | 996.7 |
| 20260906093617 | 24 | 235 | 0.0 | 0.0 | 0.00 | 0.00 | 0.00 | 91 | 996.7 |
| 20260906093118 | 24 | 235 | 0.0 | 0.0 | 0.00 | 0.00 | 0.00 | 91 | 996.6 |
| 20260906092618 | 24 | 235 | 0.0 | 0.0 | 0.00 | 0.00 | 0.00 | 91 | 996.6 |
| 20260906092349 | 24 | 235 | 0.0 | 0.0 | 0.00 | 0.00 | 0.00 | 91 | 996.6 |
| 20260906091617 | 24 | 235 | 0.0 | 0.0 | 0.00 | 0.00 | 0.00 | 91 | 996.6 |
| 20260906091117 | 24 | 235 | 0.0 | 0.0 | 0.00 | 0.00 | 0.00 | 90 | 996.6 |
| 20260906090618 | 24 | 235 | 0.0 | 0.0 | 0.00 | 0.00 | 0.00 | 91 | 996.5 |
| 20260906090117 | 24 | 235 | 0.0 | 0.0 | 0.00 | 0.00 | 0.00 | 90 | 996.5 |
| 20260906085616 | 24 | 235 | 0.0 | 0.0 | 0.00 | 0.00 | 0.00 | 90 | 996.5 |
| 20260906085118 | 24 | 235 | 0.0 | 0.0 | 0.00 | 0.00 | 0.00 | 90 | 996.4 |
| 20260906084847 | 24 | 235 | 0.0 | 0.0 | 0.00 | 0.00 | 0.00 | 90 | 996.4 |
| 20260906084348 | 24 | 235 | 0.0 | 0.0 | 0.00 | 0.00 | 0.00 | 90 | 996.4 |
| 20260906083617 | 24 | 235 | 0.0 | 0.0 | 0.00 | 0.00 | 0.00 | 90 | 996.3 |
| 20260906083117 | 24 | 235 | 0.0 | 0.0 | 0.00 | 0.00 | 0.00 | 91 | 996.4 |
| 20260906082617 | 24 | 235 | 0.0 | 0.0 | 0.00 | 0.00 | 0.00 | 91 | 996.3 |
| 20260906082116 | 24 | 235 | 0.0 | 0.0 | 0.00 | 0.00 | 0.00 | 91 | 996.4 |
| 20260906081616 | -17 | 0.0 | 0.0 | 0.00 | 0.00 | 0.00 | 996.2 | ||
| 20260906081116 | 24 | 226 | 0.0 | 0.0 | 0.00 | 0.00 | 0.00 | 91 | 996.3 |
| 20260906080615 | 24 | 226 | 0.0 | 0.0 | 0.00 | 0.00 | 0.00 | 91 | 996.2 |
| 20260906080114 | 24 | 219 | 0.0 | 0.0 | 0.00 | 0.00 | 0.00 | 91 | 996.3 |
| 20260906075614 | 24 | 210 | 0.0 | 0.0 | 0.00 | 0.00 | 0.00 | 91 | 996.4 |
| 20260906075114 | 24 | 94 | 0.0 | 0.0 | 0.00 | 0.00 | 0.00 | 90 | 996.5 |
| 20260906074614 | 25 | 94 | 0.0 | 0.0 | 0.00 | 0.00 | 0.00 | 90 | 996.6 |
| 20260906074112 | 24 | 94 | 0.0 | 0.0 | 0.00 | 0.00 | 0.00 | 90 | 996.7 |
| 20260906073844 | 25 | 103 | 0.0 | 0.0 | 0.00 | 0.00 | 0.00 | 89 | 996.5 |
| 20260906073345 | 25 | 103 | 0.0 | 0.0 | 0.00 | 0.00 | 0.00 | 89 | 996.5 |
| 20260906072613 | 25 | 103 | 0.0 | 0.0 | 0.00 | 0.00 | 0.00 | 89 | 996.6 |
| 20260906072113 | 25 | 103 | 0.0 | 0.0 | 0.00 | 0.00 | 0.00 | 89 | 996.5 |
| 20260906071613 | 25 | 103 | 0.0 | 0.0 | 0.00 | 0.00 | 0.00 | 89 | 996.5 |
| 20260906071113 | 25 | 103 | 0.0 | 0.0 | 0.00 | 0.00 | 0.00 | 88 | 996.6 |
| 20260906070612 | 25 | 103 | 0.0 | 0.0 | 0.00 | 0.00 | 0.00 | 88 | 996.5 |
| 20260906070113 | 25 | 103 | 0.0 | 0.0 | 0.00 | 0.00 | 0.00 | 88 | 996.6 |
| 20260906065613 | 25 | 103 | 0.0 | 0.0 | 0.00 | 0.00 | 0.00 | 88 | 996.6 |
| 20260906065113 | 25 | 103 | 0.0 | 0.0 | 0.00 | 0.00 | 0.00 | 88 | 996.6 |
| 20260906064611 | 25 | 103 | 0.0 | 0.0 | 0.00 | 0.00 | 0.00 | 88 | 996.7 |
| 20260906064112 | 25 | 103 | 0.0 | 0.0 | 0.00 | 0.00 | 0.00 | 88 | 996.7 |
| 20260906063611 | 25 | 103 | 0.0 | 0.0 | 0.00 | 0.00 | 0.00 | 87 | 996.7 |
| 20260906063343 | 25 | 103 | 0.0 | 0.0 | 0.00 | 0.00 | 0.00 | 87 | 996.8 |
| 20260906062612 | 25 | 103 | 0.0 | 0.0 | 0.00 | 0.00 | 0.00 | 87 | 996.7 |
| 20260906062114 | 25 | 103 | 0.0 | 0.0 | 0.00 | 0.00 | 0.00 | 87 | 996.7 |
| 20260906061613 | 25 | 103 | 0.0 | 0.0 | 0.00 | 0.00 | 0.00 | 87 | 996.8 |
| 20260906061112 | 25 | 103 | 0.0 | 0.0 | 0.00 | 0.00 | 0.00 | 87 | 996.8 |
| 20260906060612 | 25 | 103 | 0.0 | 0.0 | 0.00 | 0.00 | 0.00 | 87 | 996.7 |
| 20260906060111 | 25 | 103 | 0.0 | 0.0 | 0.00 | 0.00 | 0.00 | 86 | 996.8 |
| 20260906055611 | 25 | 103 | 0.0 | 0.0 | 0.00 | 0.00 | 0.00 | 86 | 996.9 |
| 20260906055110 | 25 | 103 | 0.0 | 0.0 | 0.00 | 0.00 | 0.00 | 86 | 996.9 |
| 20260906054611 | 25 | 103 | 0.0 | 0.0 | 0.00 | 0.00 | 0.00 | 86 | 996.9 |
| 20260906054113 | 25 | 103 | 0.0 | 0.0 | 0.00 | 0.00 | 0.00 | 86 | 996.8 |
| 20260906053612 | 25 | 103 | 0.0 | 0.0 | 0.00 | 0.00 | 0.00 | 86 | 996.9 |
| 20260906053111 | 25 | 103 | 0.0 | 0.0 | 0.00 | 0.00 | 0.00 | 86 | 996.8 |
| 20260906052609 | 25 | 103 | 0.0 | 0.0 | 0.00 | 0.00 | 0.00 | 85 | 997.0 |
| 20260906052109 | 25 | 103 | 0.0 | 0.0 | 0.00 | 0.00 | 0.00 | 85 | 996.8 |
| 20260906051609 | 26 | 103 | 0.0 | 0.0 | 0.00 | 0.00 | 0.00 | 85 | 996.8 |
| 20260906051110 | 26 | 103 | 0.0 | 0.0 | 0.00 | 0.00 | 0.00 | 85 | 996.7 |
| 20260906050110 | 26 | 103 | 0.0 | 0.0 | 0.00 | 0.00 | 0.00 | 84 | 996.6 |
| 20260906045608 | 26 | 103 | 0.0 | 0.0 | 0.00 | 0.00 | 0.00 | 84 | 996.5 |
| 20260906045110 | 26 | 103 | 0.0 | 0.0 | 0.00 | 0.00 | 0.00 | 84 | 996.5 |
| 20260906044610 | 26 | 103 | 0.0 | 0.0 | 0.00 | 0.00 | 0.00 | 83 | 996.4 |
| 20260906044109 | 26 | 103 | 0.0 | 0.0 | 0.00 | 0.00 | 0.00 | 83 | 996.4 |
| 20260906043608 | 26 | 103 | 0.0 | 0.0 | 0.00 | 0.00 | 0.00 | 82 | 996.5 |
| 20260906043107 | 26 | 103 | 0.0 | 0.0 | 0.00 | 0.00 | 0.00 | 81 | 996.4 |
| 20260906042840 | 26 | 103 | 0.0 | 0.0 | 0.00 | 0.00 | 0.00 | 81 | 996.5 |
| 20260906042108 | 26 | 103 | 0.0 | 0.0 | 0.00 | 0.00 | 0.00 | 81 | 996.4 |
| 20260906041608 | 26 | 103 | 0.0 | 0.0 | 0.00 | 0.00 | 0.00 | 81 | 996.4 |
| 20260906041108 | 27 | 103 | 0.0 | 0.0 | 0.00 | 0.00 | 0.00 | 81 | 996.4 |
| 20260906040609 | 27 | 103 | 0.0 | 0.0 | 0.00 | 0.00 | 0.00 | 81 | 996.5 |
| 20260906040107 | 27 | 103 | 0.0 | 0.0 | 0.00 | 0.00 | 0.00 | 80 | 996.4 |
| 20260906035609 | 27 | 103 | 0.0 | 0.0 | 0.00 | 0.00 | 0.00 | 79 | 996.4 |
| 20260906035108 | 27 | 103 | 0.0 | 0.0 | 0.00 | 0.00 | 0.00 | 79 | 996.5 |
| 20260906034608 | 27 | 103 | 0.0 | 0.0 | 0.00 | 0.00 | 0.00 | 79 | 996.5 |
| 20260906034108 | 27 | 103 | 0.0 | 0.0 | 0.00 | 0.00 | 0.00 | 79 | 996.4 |
| 20260906033608 | 27 | 103 | 0.0 | 0.0 | 0.00 | 0.00 | 0.00 | 79 | 996.4 |
| 20260906033107 | 27 | 103 | 0.0 | 0.0 | 0.00 | 0.00 | 0.00 | 78 | 996.5 |
| 20260906032607 | 27 | 103 | 0.0 | 0.0 | 0.00 | 0.00 | 0.00 | 78 | 996.5 |
| 20260906032108 | -17 | 0.0 | 0.0 | 0.00 | 0.00 | 0.00 | 996.6 | ||
| 20260906031608 | -17 | 0.0 | 0.0 | 0.00 | 0.00 | 0.00 | 996.5 | ||
| 20260906031106 | -17 | 0.0 | 0.0 | 0.00 | 0.00 | 0.00 | 996.4 | ||
| 20260906030606 | -17 | 0.0 | 0.0 | 0.00 | 0.00 | 0.00 | 996.4 | ||
| 20260906025602 | 28 | 103 | 0.0 | 0.0 | 0.00 | 0.00 | 0.00 | 76 | 996.4 |
| 20260906025100 | 28 | 103 | 0.0 | 0.0 | 0.00 | 0.00 | 0.00 | 75 | 996.3 |
| 20260906024601 | 28 | 103 | 0.0 | 0.0 | 0.00 | 0.00 | 0.00 | 75 | 996.3 |
| 20260906024100 | 28 | 103 | 0.0 | 0.0 | 0.00 | 0.00 | 0.00 | 73 | 996.1 |
| 20260906023602 | 28 | 103 | 0.0 | 0.0 | 0.00 | 0.00 | 0.00 | 73 | 996.1 |
| 20260906023101 | -17 | 0.0 | 0.0 | 0.00 | 0.00 | 0.00 | 996.1 | ||
| 20260906022600 | -17 | 0.0 | 0.0 | 0.00 | 0.00 | 0.00 | 996.2 | ||
| 20260906022059 | -17 | 0.0 | 0.0 | 0.00 | 0.00 | 0.00 | 996.0 | ||
| 20260906021558 | -17 | 0.0 | 0.0 | 0.00 | 0.00 | 0.00 | 995.9 | ||
| 20260906021056 | 29 | 103 | 1.6 | 3.2 | 0.00 | 0.00 | 0.00 | 71 | 995.8 |
| 20260906020555 | 29 | 103 | 1.6 | 3.2 | 0.00 | 0.00 | 0.00 | 71 | 995.7 |
| 20260906020056 | 30 | 103 | 0.0 | 4.8 | 0.00 | 0.00 | 0.00 | 70 | 995.6 |
| 20260906015827 | 30 | 103 | 0.0 | 4.8 | 0.00 | 0.00 | 0.00 | 70 | 995.4 |
| 20260906015055 | 30 | 103 | 3.2 | 3.2 | 0.00 | 0.00 | 0.00 | 69 | 995.4 |
| 20260906014553 | 30 | 103 | 0.0 | 3.2 | 0.00 | 0.00 | 0.00 | 68 | 995.3 |
| 20260906014053 | 30 | 103 | 3.2 | 3.2 | 0.00 | 0.00 | 0.00 | 68 | 995.4 |
| 20260906013554 | 30 | 103 | 0.0 | 3.2 | 0.00 | 0.00 | 0.00 | 68 | 995.2 |
| 20260906013054 | 30 | 103 | 0.0 | 3.2 | 0.00 | 0.00 | 0.00 | 67 | 995.2 |
| 20260906012554 | 30 | 103 | 1.6 | 4.8 | 0.00 | 0.00 | 0.00 | 67 | 995.2 |
| 20260906012054 | 31 | 103 | 1.6 | 4.8 | 0.00 | 0.00 | 0.00 | 66 | 995.1 |
| 20260906011558 | 31 | 103 | 3.2 | 6.4 | 0.00 | 0.00 | 0.00 | 66 | 994.9 |
| 20260906011055 | 31 | 107 | 3.2 | 6.4 | 0.00 | 0.00 | 0.00 | 63 | 994.8 |
| 20260906010553 | 32 | 107 | 4.8 | 6.4 | 0.00 | 0.00 | 0.00 | 63 | 994.8 |
| 20260906010053 | 32 | 124 | 1.6 | 4.8 | 0.00 | 0.00 | 0.00 | 61 | 994.8 |
| 20260906005554 | 33 | 124 | 1.6 | 3.2 | 0.00 | 0.00 | 0.00 | 60 | 994.8 |
| 20260906005052 | -17 | 0.0 | 0.0 | 0.00 | 0.00 | 0.00 | 994.8 | ||
| 20260906004552 | -17 | 0.0 | 0.0 | 0.00 | 0.00 | 0.00 | 994.6 | ||
| 20260906004321 | 34 | 124 | 0.0 | 0.0 | 0.00 | 0.00 | 0.00 | 57 | 994.6 |
| 20260906003550 | 34 | 124 | 0.0 | 0.0 | 0.00 | 0.00 | 0.00 | 57 | 994.7 |
| 20260906003321 | 34 | 124 | 0.0 | 4.8 | 0.00 | 0.00 | 0.00 | 55 | 994.7 |
| 20260906002821 | 35 | 124 | 0.0 | 4.8 | 0.00 | 0.00 | 0.00 | 55 | 994.7 |
| 20260906001549 | 35 | 121 | 0.0 | 3.2 | 0.00 | 0.00 | 0.00 | 52 | 994.7 |
| 20260906001050 | 35 | 82 | 1.6 | 3.2 | 0.00 | 0.00 | 0.00 | 51 | 994.7 |
| 20260906000549 | 36 | 82 | 1.6 | 3.2 | 0.00 | 0.00 | 0.00 | 50 | 994.7 |
| 20260906000049 | 36 | 82 | 0.0 | 1.6 | 0.00 | 0.00 | 0.00 | 49 | 994.7 |
| 20260905235820 | 36 | 82 | 0.0 | 4.8 | 0.00 | 0.00 | 0.00 | 49 | 994.9 |
| 20260905235048 | 36 | 82 | 1.6 | 4.8 | 0.00 | 0.00 | 0.00 | 49 | 994.7 |
| 20260905234819 | 36 | 82 | 1.6 | 4.8 | 0.00 | 0.00 | 0.00 | 48 | 994.8 |
| 20260905234047 | 36 | 66 | 1.6 | 3.2 | 0.00 | 0.00 | 0.00 | 48 | 994.9 |
| 20260905233819 | 36 | 66 | 1.6 | 3.2 | 0.00 | 0.00 | 0.00 | 48 | 994.8 |
| 20260905233319 | 36 | 63 | 0.0 | 4.8 | 0.00 | 0.00 | 0.00 | 47 | 994.8 |
| 20260905232548 | 37 | 63 | 3.2 | 6.4 | 0.00 | 0.00 | 0.00 | 47 | 994.7 |
| 20260905232048 | 37 | 62 | 3.2 | 6.4 | 0.00 | 0.00 | 0.00 | 48 | 994.8 |
| 20260905231548 | 37 | 86 | 1.6 | 6.4 | 0.00 | 0.00 | 0.00 | 48 | 994.8 |
| 20260905231319 | 37 | 59 | 3.2 | 11.3 | 0.00 | 0.00 | 0.00 | 48 | 994.7 |
| 20260905230549 | 37 | 107 | 4.8 | 11.3 | 0.00 | 0.00 | 0.00 | 48 | 994.7 |
| 20260905230047 | 37 | 85 | 3.2 | 3.2 | 0.00 | 0.00 | 0.00 | 48 | 994.8 |
| 20260905225547 | 37 | 51 | 4.8 | 9.7 | 0.00 | 0.00 | 0.00 | 48 | 994.8 |
| 20260905225045 | 37 | 51 | 4.8 | 11.3 | 0.00 | 0.00 | 0.00 | 48 | 994.8 |
| 20260905224546 | 37 | 31 | 4.8 | 9.7 | 0.00 | 0.00 | 0.00 | 48 | 994.8 |
| 20260905224049 | 37 | 59 | 3.2 | 14.5 | 0.00 | 0.00 | 0.00 | 48 | 994.8 |
| 20260905223545 | 37 | 71 | 4.8 | 14.5 | 0.00 | 0.00 | 0.00 | 48 | 994.8 |
| 20260905223045 | 37 | 106 | 3.2 | 11.3 | 0.00 | 0.00 | 0.00 | 48 | 994.7 |
| 20260905222545 | 37 | 66 | 4.8 | 24.1 | 0.00 | 0.00 | 0.00 | 47 | 994.8 |
| 20260905222045 | 37 | 68 | 11.3 | 24.1 | 0.00 | 0.00 | 0.00 | 47 | 994.7 |
| 20260905221545 | 37 | 73 | 8.0 | 9.7 | 0.00 | 0.00 | 0.00 | 48 | 994.8 |
| 20260905221044 | 37 | 71 | 3.2 | 9.7 | 0.00 | 0.00 | 0.00 | 48 | 994.6 |
| 20260905220816 | 37 | 55 | 8.0 | 11.3 | 0.00 | 0.00 | 0.00 | 47 | 994.7 |
| 20260905220045 | 37 | 59 | 6.4 | 11.3 | 0.00 | 0.00 | 0.00 | 47 | 994.8 |
| 20260905215545 | 37 | 102 | 3.2 | 8.0 | 0.00 | 0.00 | 0.00 | 47 | 994.8 |
| 20260905215044 | 37 | 169 | 3.2 | 8.0 | 0.00 | 0.00 | 0.00 | 47 | 994.9 |
| 20260905214544 | 37 | 116 | 8.0 | 11.3 | 0.00 | 0.00 | 0.00 | 46 | 994.8 |
| 20260905214043 | 37 | 116 | 8.0 | 16.1 | 0.00 | 0.00 | 0.00 | 46 | 994.9 |
| 20260905213542 | 37 | 72 | 6.4 | 17.7 | 0.00 | 0.00 | 0.00 | 46 | 994.8 |
| 20260905213042 | 37 | 90 | 9.7 | 17.7 | 0.00 | 0.00 | 0.00 | 46 | 994.7 |
| 20260905212543 | 37 | 55 | 6.4 | 14.5 | 0.00 | 0.00 | 0.00 | 46 | 994.7 |
| 20260905212043 | 37 | 103 | 3.2 | 11.3 | 0.00 | 0.00 | 0.00 | 47 | 994.8 |
| 20260905211543 | 37 | 104 | 4.8 | 17.7 | 0.00 | 0.00 | 0.00 | 48 | 994.7 |
| 20260905211042 | 37 | 89 | 8.0 | 17.7 | 0.00 | 0.00 | 0.00 | 47 | 994.8 |
| 20260905210545 | 37 | 138 | 6.4 | 14.5 | 0.00 | 0.00 | 0.00 | 47 | 994.7 |
| 20260905210043 | 37 | 107 | 8.0 | 20.9 | 0.00 | 0.00 | 0.00 | 47 | 994.8 |
| 20260905205542 | 37 | 69 | 9.7 | 20.9 | 0.00 | 0.00 | 0.00 | 46 | 994.8 |
| 20260905205041 | -17 | 0.0 | 0.0 | 0.00 | 0.00 | 0.00 | 994.9 | ||
| 20260905204813 | -17 | 0.0 | 0.0 | 0.00 | 0.00 | 0.00 | 994.9 | ||
| 20260905204311 | 39 | 86 | 9.7 | 20.9 | 0.00 | 0.00 | 0.00 | 43 | 994.9 |
| 20260905203539 | 39 | 86 | 9.7 | 20.9 | 0.00 | 0.00 | 0.00 | 43 | 995.0 |
| 20260905203038 | 39 | 52 | 3.2 | 11.3 | 0.00 | 0.00 | 0.00 | 43 | 994.9 |
| 20260905202809 | 39 | 183 | 1.6 | 14.5 | 0.00 | 0.00 | 0.00 | 42 | 994.9 |
| 20260905202037 | 40 | 140 | 3.2 | 16.1 | 0.00 | 0.00 | 0.00 | 42 | 995.0 |
| 20260905201537 | 40 | 75 | 9.7 | 16.1 | 0.00 | 0.00 | 0.00 | 41 | 995.1 |
| 20260905201039 | 41 | 148 | 3.2 | 8.0 | 0.00 | 0.00 | 0.00 | 38 | 995.2 |
| 20260905200537 | 41 | 51 | 3.2 | 11.3 | 0.00 | 0.00 | 0.00 | 38 | 995.3 |
| 20260905200038 | 41 | 180 | 6.4 | 11.3 | 0.00 | 0.00 | 0.00 | 37 | 995.4 |
| 20260905195538 | 40 | 316 | 3.2 | 9.7 | 0.00 | 0.00 | 0.00 | 37 | 995.5 |
| 20260905195038 | 40 | 121 | 3.2 | 6.4 | 0.00 | 0.00 | 0.00 | 38 | 995.6 |
| 20260905194534 | 40 | 300 | 1.6 | 4.8 | 0.00 | 0.00 | 0.00 | 38 | 995.7 |
| 20260905194036 | 40 | 199 | 1.6 | 8.0 | 0.00 | 0.00 | 0.00 | 39 | 995.7 |
| 20260905193536 | 39 | 72 | 1.6 | 8.0 | 0.00 | 0.00 | 0.00 | 39 | 995.7 |
| 20260905193036 | 39 | 200 | 1.6 | 14.5 | 0.00 | 0.00 | 0.00 | 39 | 995.7 |
| 20260905192807 | 39 | 245 | 8.0 | 14.5 | 0.00 | 0.00 | 0.00 | 39 | 995.8 |
| 20260905192036 | 39 | 228 | 6.4 | 11.3 | 0.00 | 0.00 | 0.00 | 39 | 995.9 |
| 20260905191536 | 39 | 200 | 6.4 | 16.1 | 0.00 | 0.00 | 0.00 | 39 | 996.0 |
| 20260905191036 | 39 | 221 | 9.7 | 16.1 | 0.00 | 0.00 | 0.00 | 39 | 996.0 |
| 20260905190804 | 39 | 240 | 9.7 | 14.5 | 0.00 | 0.00 | 0.00 | 38 | 996.1 |
| 20260905190035 | 40 | 245 | 3.2 | 8.0 | 0.00 | 0.00 | 0.00 | 39 | 996.2 |
| 20260905185535 | 39 | 0 | 3.2 | 4.8 | 0.00 | 0.00 | 0.00 | 40 | 996.3 |
| 20260905185306 | 39 | 0 | 3.2 | 6.4 | 0.00 | 0.00 | 0.00 | 40 | 996.3 |
| 20260905184535 | 39 | 265 | 3.2 | 11.3 | 0.00 | 0.00 | 0.00 | 41 | 996.4 |
| 20260905184035 | 39 | 183 | 6.4 | 11.3 | 0.00 | 0.00 | 0.00 | 40 | 996.5 |
| 20260905183535 | 40 | 197 | 6.4 | 11.3 | 0.00 | 0.00 | 0.00 | 40 | 996.5 |
| 20260905183034 | 40 | 135 | 3.2 | 8.0 | 0.00 | 0.00 | 0.00 | 40 | 996.5 |
| 20260905182533 | 39 | 154 | 3.2 | 9.7 | 0.00 | 0.00 | 0.00 | 42 | 996.6 |
| 20260905182035 | 39 | 314 | 3.2 | 14.5 | 0.00 | 0.00 | 0.00 | 41 | 996.7 |
| 20260905181535 | 38 | 106 | 6.4 | 14.5 | 0.00 | 0.00 | 0.00 | 41 | 996.7 |
| 20260905181035 | 38 | 42 | 4.8 | 9.7 | 0.00 | 0.00 | 0.00 | 41 | 996.8 |
| 20260905180534 | 38 | 106 | 4.8 | 9.7 | 0.00 | 0.00 | 0.00 | 41 | 996.8 |
| 20260905180034 | 39 | 45 | 4.8 | 9.7 | 0.00 | 0.00 | 0.00 | 42 | 996.9 |
| 20260905175534 | 39 | 102 | 4.8 | 6.4 | 0.00 | 0.00 | 0.00 | 41 | 997.0 |
| 20260905175034 | 39 | 11 | 1.6 | 6.4 | 0.00 | 0.00 | 0.00 | 42 | 997.0 |
| 20260905174534 | -17 | 0.0 | 0.0 | 0.00 | 0.00 | 0.00 | 997.2 | ||
| 20260905174032 | -17 | 0.0 | 0.0 | 0.00 | 0.00 | 0.00 | 997.1 | ||
| 20260905173802 | -17 | 0.0 | 0.0 | 0.00 | 0.00 | 0.00 | 997.2 | ||
| 20260905173030 | -17 | 0.0 | 0.0 | 0.00 | 0.00 | 0.00 | 997.2 | ||
| 20260905172529 | -17 | 0.0 | 0.0 | 0.00 | 0.00 | 0.00 | 997.2 | ||
| 20260905172027 | -17 | 0.0 | 0.0 | 0.00 | 0.00 | 0.00 | 997.3 | ||
| 20260905171527 | -17 | 0.0 | 0.0 | 0.00 | 0.00 | 0.00 | 997.3 | ||
| 20260905171025 | -17 | 0.0 | 0.0 | 0.00 | 0.00 | 0.00 | 997.4 | ||
| 20260905170524 | -17 | 0.0 | 0.0 | 0.00 | 0.00 | 0.00 | 997.6 | ||
| 20260905170022 | -17 | 0.0 | 0.0 | 0.00 | 0.00 | 0.00 | 997.7 | ||
| 20260905165523 | -17 | 0.0 | 0.0 | 0.00 | 0.00 | 0.00 | 997.7 | ||
| 20260905165020 | -17 | 0.0 | 0.0 | 0.00 | 0.00 | 0.00 | 997.7 | ||
| 20260905164750 | -17 | 0.0 | 0.0 | 0.00 | 0.00 | 0.00 | 997.7 | ||
| 20260905164018 | -17 | 0.0 | 0.0 | 0.00 | 0.00 | 0.00 | 997.7 | ||
| 20260905163517 | -17 | 0.0 | 0.0 | 0.00 | 0.00 | 0.00 | 997.8 | ||
| 20260905163017 | -17 | 0.0 | 0.0 | 0.00 | 0.00 | 0.00 | 997.9 | ||
| 20260905162515 | -17 | 0.0 | 0.0 | 0.00 | 0.00 | 0.00 | 997.9 | ||
| 20260905162014 | -17 | 0.0 | 0.0 | 0.00 | 0.00 | 0.00 | 998.0 | ||
| 20260905161513 | 35 | 58 | 3.2 | 4.8 | 0.00 | 0.00 | 0.00 | 59 | 998.0 |
| 20260905161011 | 35 | 58 | 3.2 | 4.8 | 0.00 | 0.00 | 0.00 | 59 | 998.0 |
| 20260905160511 | -17 | 0.0 | 0.0 | 0.00 | 0.00 | 0.00 | 998.0 | ||
| 20260905160008 | 35 | 133 | 1.6 | 4.8 | 0.00 | 0.00 | 0.00 | 59 | 998.0 |
| 20260905155508 | 35 | 133 | 1.6 | 4.8 | 0.00 | 0.00 | 0.00 | 59 | 998.1 |
| 20260905155008 | 34 | 48 | 3.2 | 6.4 | 0.00 | 0.00 | 0.00 | 60 | 998.2 |
| 20260905154508 | 34 | 28 | 3.2 | 6.4 | 0.00 | 0.00 | 0.00 | 60 | 998.1 |
| 20260905154008 | 34 | 0 | 4.8 | 6.4 | 0.00 | 0.00 | 0.00 | 61 | 998.2 |
| 20260905153508 | 33 | 3 | 3.2 | 4.8 | 0.00 | 0.00 | 0.00 | 64 | 998.1 |
| 20260905153008 | 33 | 1 | 3.2 | 6.4 | 0.00 | 0.00 | 0.00 | 64 | 998.1 |
| 20260905152508 | 33 | 13 | 1.6 | 6.4 | 0.00 | 0.00 | 0.00 | 65 | 998.1 |
| 20260905152007 | 32 | 344 | 3.2 | 6.4 | 0.00 | 0.00 | 0.00 | 69 | 998.2 |
| 20260905151507 | 31 | 210 | 1.6 | 4.8 | 0.00 | 0.00 | 0.00 | 69 | 998.2 |
| 20260905151006 | 31 | 210 | 1.6 | 4.8 | 0.00 | 0.00 | 0.00 | 69 | 998.3 |